Location: Chervonnoye
(48.6000°N, 34.4000°E)
Time: 21:15:49
(UTC+00:00)

RS-44 - Pass Details

Date: 29 November 2021
Orbit: 1175 x 1510 km, 82.5° (Epoch: 19 January)

Event Time Altitude Azimuth Distance (km) Brightness Sun altitude
Rises 03:26:26 0° 353° (N) 4,107 ? -16.6°
Reaches altitude 10° 03:29:21 10° 3° (N) 3,166 ? -16.2°
Maximum altitude 03:36:06 36° 68° (ENE) 1,878 ? -15.1°
Drops below altitude 10° 03:43:11 10° 133° (SE) 3,340 ? -14.0°
Sets 03:46:19 0° 142° (SE) 4,359 ? -13.5°
